GW1001 Weather Reports


time (UTC)temp
F
wind
direction
speed
knots
gust
knots
rain 1hr
in
rain 24hr
in
rain mn
in
humidity
%
barometer
mb
20260506233505 67 290 7.0 14.8 0.00 0.00 0.00 69 1017.9
20260506233006 68 242 8.7 14.8 0.00 0.00 0.00 69 1017.9
20260506232505 68 265 7.0 13.0 0.00 0.00 0.00 68 1017.9
20260506232007 68 236 7.8 14.8 0.00 0.00 0.00 68 1018.0
20260506231505 68 248 7.0 14.8 0.00 0.00 0.00 68 1018.2
20260506231005 69 255 7.0 16.5 0.00 0.00 0.00 67 1018.1
20260506230504 69 272 7.0 16.5 0.00 0.00 0.00 67 1018.1
20260506225506 70 248 6.1 15.6 0.00 0.00 0.00 66 1018.3
20260506225007 70 310 6.1 13.9 0.00 0.00 0.00 67 1018.3
20260506224005 71 296 7.8 13.0 0.00 0.00 0.00 66 1018.4
20260506223505 71 223 7.0 12.2 0.00 0.00 0.00 66 1018.5
20260506223006 71 221 4.3 12.2 0.00 0.00 0.00 68 1018.6
20260506222505 71 261 6.1 12.2 0.00 0.00 0.00 66 1018.6
20260506222006 71 269 6.1 12.2 0.00 0.00 0.00 66 1018.5
20260506221505 71 228 6.1 10.4 0.00 0.00 0.00 66 1018.7
20260506221006 71 235 5.2 9.6 0.00 0.00 0.00 66 1018.7
20260506220006 72 275 4.3 10.4 0.00 0.00 0.00 66 1019.0
20260506215505 72 269 3.5 10.4 0.00 0.00 0.00 66 1019.1
20260506214505 72 281 4.3 10.4 0.00 0.00 0.00 65 1019.1
20260506214005 72 238 5.2 10.4 0.00 0.00 0.00 65 1019.0
20260506213006 72 264 3.5 7.8 0.00 0.00 0.00 65 1019.2
20260506212505 72 277 3.5 7.8 0.00 0.00 0.00 66 1019.1
20260506212006 71 265 3.5 9.6 0.00 0.00 0.00 67 1019.2
20260506211505 71 252 3.5 9.6 0.00 0.00 0.00 65 1019.2
20260506211007 71 225 3.5 9.6 0.00 0.00 0.00 67 1019.2
20260506210504 71 313 5.2 9.6 0.00 0.00 0.00 66 1019.2
20260506210007 71 284 3.5 9.6 0.00 0.00 0.00 66 1019.2
20260506205504 72 284 2.6 7.8 0.00 0.00 0.00 65 1019.2
20260506204505 72 273 1.7 3.5 0.00 0.00 0.00 61 1019.4
20260506204005 72 267 0.9 3.5 0.00 0.00 0.00 60 1019.4
20260506203505 72 240 1.7 3.5 0.00 0.00 0.00 59 1019.5
20260506202005 72 198 0.9 2.6 0.00 0.00 0.00 61 1019.7
20260506201006 72 29 0.9 1.7 0.00 0.00 0.00 60 1019.8
20260506200504 72 274 0.9 2.6 0.00 0.00 0.00 60 1019.8
20260506200007 72 35 0.9 2.6 0.00 0.00 0.00 60 1019.7
20260506195505 72 118 0.9 6.1 0.00 0.00 0.00 61 1019.8
20260506194005 71 90 2.6 5.2 0.00 0.00 0.00 64 1020.0
20260506193505 71 83 1.7 3.5 0.00 0.00 0.00 63 1020.1
20260506193005 71 246 0.9 3.5 0.00 0.00 0.00 62 1020.1
20260506192504 71 40 0.9 2.6 0.00 0.00 0.00 63 1020.2
20260506192005 71 342 0.0 2.6 0.00 0.00 0.00 63 1020.2
20260506191506 71 355 0.9 2.6 0.00 0.00 0.00 64 1020.3
20260506190504 71 313 0.9 3.5 0.00 0.00 0.00 63 1020.3
20260506190007 71 30 0.9 3.5 0.00 0.00 0.00 62 1020.4
20260506185005 71 90 0.9 3.5 0.00 0.00 0.00 63 1020.4
20260506184505 70 111 0.9 3.5 0.00 0.00 0.00 64 1020.4
20260506184007 70 346 1.7 6.1 0.00 0.00 0.00 63 1020.3
20260506183505 70 73 1.7 6.1 0.00 0.00 0.00 65 1020.5
20260506183006 69 131 0.9 6.1 0.00 0.00 0.00 65 1020.5
20260506182506 69 117 2.6 6.1 0.00 0.00 0.00 65 1020.6
20260506182005 69 193 0.9 3.5 0.00 0.00 0.00 66 1020.5
20260506181505 69 261 1.7 3.5 0.00 0.00 0.00 65 1020.5
20260506181006 68 346 0.9 2.6 0.00 0.00 0.00 66 1020.4
20260506180504 68 281 0.9 3.5 0.00 0.00 0.00 65 1020.4
20260506180008 68 231 0.9 3.5 0.00 0.00 0.00 67 1020.4
20260506175505 68 293 0.0 2.6 0.00 0.00 0.00 67 1020.4
20260506174504 67 188 1.7 5.2 0.00 0.00 0.00 67 1020.5
20260506174005 67 302 0.9 3.5 0.00 0.00 0.00 68 1020.5
20260506173505 66 279 0.9 4.3 0.00 0.00 0.00 70 1020.5
20260506173005 66 64 1.7 4.3 0.00 0.00 0.00 67 1020.5
20260506172505 66 297 1.7 3.5 0.00 0.00 0.00 67 1020.4
20260506172006 66 322 0.9 2.6 0.00 0.00 0.00 69 1020.3
20260506171505 66 28 0.9 3.5 0.00 0.00 0.00 69 1020.4
20260506171007 66 289 1.7 6.1 0.00 0.00 0.00 69 1020.4
20260506170504 66 244 1.7 6.1 0.00 0.00 0.00 69 1020.7
20260506170005 66 239 0.9 3.5 0.00 0.00 0.00 70 1020.7
20260506165505 66 244 1.7 3.5 0.00 0.00 0.00 68 1020.6
20260506165005 66 273 0.9 2.6 0.00 0.00 0.00 69 1020.7
20260506164006 65 188 0.9 1.7 0.00 0.00 0.00 69 1020.8
20260506163006 64 27 0.9 1.7 0.00 0.00 0.00 70 1020.6
20260506162504 64 302 0.9 2.6 0.00 0.00 0.00 70 1020.7
20260506162006 63 348 0.9 2.6 0.00 0.00 0.00 72 1020.7
20260506161504 63 306 0.0 2.6 0.00 0.00 0.00 73 1020.7
20260506161005 62 306 0.9 3.5 0.00 0.00 0.00 73 1020.7
20260506160504 62 279 1.7 3.5 0.00 0.00 0.00 73 1020.7
20260506160007 62 294 0.0 2.6 0.00 0.00 0.00 74 1020.8
20260506155504 61 306 0.9 3.5 0.00 0.00 0.00 74 1020.9
20260506155006 61 305 0.9 3.5 0.00 0.00 0.00 75 1020.9
20260506154505 60 286 0.0 2.6 0.00 0.00 0.00 76 1020.9
20260506153505 60 286 0.9 4.3 0.00 0.00 0.00 77 1020.9
20260506153007 59 287 0.9 4.3 0.00 0.00 0.00 78 1020.9
20260506152505 59 274 0.9 3.5 0.00 0.00 0.00 78 1020.7
20260506151506 58 279 1.7 3.5 0.00 0.00 0.00 80 1020.8
20260506150505 58 293 1.7 4.3 0.00 0.00 0.00 81 1020.7
20260506150007 58 288 1.7 6.1 0.00 0.00 0.00 82 1020.8
20260506145504 57 261 1.7 6.1 0.00 0.00 0.00 82 1020.8
20260506145006 57 239 0.9 3.5 0.00 0.00 0.00 83 1020.7
20260506144504 57 222 1.7 3.5 0.00 0.00 0.00 84 1020.6
20260506143504 56 279 1.7 4.3 0.00 0.00 0.00 84 1020.6
20260506143006 56 263 2.6 5.2 0.00 0.00 0.00 84 1020.5
20260506142505 56 250 1.7 5.2 0.00 0.00 0.00 84 1020.6
20260506142005 56 281 1.7 5.2 0.00 0.00 0.00 85 1020.5
20260506141505 56 334 0.9 2.6 0.00 0.00 0.00 85 1020.4
20260506140504 56 263 0.9 5.2 0.00 0.00 0.00 84 1020.3
20260506135505 55 322 1.7 5.2 0.00 0.00 0.00 84 1020.3
20260506135006 55 261 1.7 7.0 0.00 0.00 0.00 84 1020.3
20260506134504 55 232 2.6 7.8 0.00 0.00 0.00 84 1020.1
20260506134005 55 219 1.7 7.8 0.00 0.00 0.00 84 1020.2
20260506133504 55 272 2.6 7.0 0.00 0.00 0.00 85 1020.1
20260506133005 55 231 0.9 6.1 0.00 0.00 0.00 85 1020.1
20260506132505 55 288 1.7 5.2 0.00 0.00 0.00 85 1020.0
20260506132006 55 217 2.6 5.2 0.00 0.00 0.00 85 1020.1
20260506131505 55 260 1.7 3.5 0.00 0.00 0.00 85 1020.0
20260506131006 55 293 0.9 6.1 0.00 0.00 0.00 85 1020.0
20260506130505 55 301 3.5 6.1 0.00 0.00 0.00 85 1020.0
20260506125505 55 213 0.9 3.5 0.00 0.00 0.00 85 1020.0
20260506125006 55 257 1.7 4.3 0.00 0.00 0.00 85 1020.1
20260506124505 55 275 0.9 6.1 0.00 0.00 0.00 85 1020.0
20260506124006 55 257 1.7 6.1 0.00 0.00 0.00 85 1020.0
20260506123505 55 293 1.7 5.2 0.00 0.00 0.00 85 1019.9
20260506123006 55 321 1.7 3.5 0.00 0.00 0.00 85 1020.0
20260506121005 55 252 1.7 4.3 0.00 0.00 0.00 85 1019.8
20260506120505 55 270 1.7 4.3 0.00 0.00 0.00 85 1019.8
20260506120005 55 326 0.9 4.3 0.00 0.00 0.00 85 1019.9
20260506115505 55 315 0.9 4.3 0.00 0.00 0.00 85 1019.9
20260506115006 55 257 0.9 4.3 0.00 0.00 0.00 85 1019.8
20260506114005 55 251 1.7 4.3 0.00 0.00 0.00 85 1019.6
20260506113500 55 287 1.7 4.3 0.00 0.00 0.00 85 1019.6
20260506113005 55 241 2.6 6.1 0.00 0.00 0.00 85 1019.4
20260506112500 55 223 1.7 7.8 0.00 0.00 0.00 85 1019.5
20260506112006 55 267 2.6 7.8 0.00 0.00 0.00 85 1019.5
20260506111005 55 265 3.5 7.8 0.00 0.00 0.00 84 1019.4
20260506110005 55 216 2.6 7.0 0.00 0.00 0.00 85 1019.2
20260506105503 55 254 1.7 7.0 0.00 0.00 0.00 85 1019.3
20260506105005 55 275 1.7 6.1 0.00 0.00 0.00 85 1019.2
20260506104500 55 260 1.7 6.1 0.00 0.00 0.00 85 1019.1
20260506104005 55 243 2.6 7.8 0.00 0.00 0.00 85 1019.1
20260506103500 55 232 1.7 7.0 0.00 0.00 0.00 84 1019.2
20260506102505 55 275 2.6 7.8 0.00 0.00 0.00 84 1019.1
20260506102004 55 242 1.7 6.1 0.00 0.00 0.00 84 1019.0
20260506101005 55 274 2.6 7.0 0.00 0.00 0.00 84 1019.0
20260506100500 55 259 1.7 9.6 0.00 0.00 0.00 84 1019.0
20260506100008 55 240 3.5 9.6 0.00 0.00 0.00 84 1019.0
20260506095505 55 284 2.6 5.2 0.00 0.00 0.00 84 1019.1
20260506094505 55 244 1.7 7.8 0.00 0.00 0.00 84 1019.1
20260506093504 55 227 1.7 7.0 0.00 0.00 0.00 85 1019.1
20260506093006 55 290 1.7 5.2 0.00 0.00 0.00 85 1019.2
20260506092006 55 257 1.7 7.0 0.00 0.00 0.00 85 1019.1
20260506091504 55 260 1.7 6.1 0.00 0.00 0.00 85 1019.1
20260506091006 55 302 0.9 4.3 0.00 0.00 0.00 85 1019.1
20260506090005 55 284 0.9 3.5 0.00 0.00 0.00 84 1019.0
20260506085006 55 294 0.9 2.6 0.00 0.03 0.00 84 1019.0
20260506084505 55 267 0.0 6.1 0.00 0.03 0.00 84 1018.9
20260506084005 55 283 1.7 6.1 0.00 0.03 0.00 84 1019.0
20260506083504 55 332 1.7 6.1 0.00 0.03 0.00 84 1019.0
20260506083006 55 244 1.7 7.8 0.00 0.03 0.00 84 1018.9
20260506082006 55 268 1.7 7.0 0.00 0.03 0.00 84 1019.0
20260506081505 55 270 2.6 7.8 0.00 0.03 0.00 84 1019.0
20260506081006 55 259 2.6 8.7 0.00 0.03 0.00 84 1018.9
20260506080504 55 229 3.5 8.7 0.00 0.03 0.00 84 1018.9
20260506073005 55 307 2.6 7.0 0.00 0.07 0.00 83 1018.7
20260506072505 55 273 2.6 7.8 0.00 0.07 0.00 83 1018.6
20260506072005 55 278 2.6 10.4 0.00 0.07 0.00 83 1018.6
20260506071505 55 326 2.6 10.4 0.00 0.07 0.00 83 1018.6
20260506071005 56 285 2.6 11.3 0.00 0.07 0.00 83 1018.5
20260506062505 56 257 0.9 5.2 0.00 0.12 0.07 83 1018.3
20260506062006 56 263 1.7 7.8 0.00 0.12 0.07 83 1018.2
20260506061505 56 272 2.6 7.8 0.00 0.12 0.07 83 1018.2
20260506061006 56 303 1.7 7.8 0.00 0.12 0.07 83 1018.2
20260506051006 56 266 2.6 8.7 0.00 0.15 0.07 82 1017.7
20260506050505 56 250 4.3 10.4 0.00 0.15 0.07 82 1017.6
20260506045005 56 250 3.5 11.3 0.00 0.25 0.07 81 1017.4
20260506044505 56 251 2.6 10.4 0.00 0.25 0.07 81 1017.4
20260506043504 56 229 5.2 10.4 0.00 0.25 0.07 81 1017.2
20260506042505 56 252 3.5 7.8 0.00 0.25 0.07 80 1017.2
20260506042005 57 256 2.6 8.7 0.00 0.25 0.07 80 1017.1
20260506041505 57 245 3.5 8.7 0.00 0.25 0.07 80 1017.1
20260506041007 57 267 2.6 13.0 0.00 0.25 0.07 79 1017.1
20260506035008 57 287 1.7 8.7 0.00 0.29 0.07 78 1016.9
20260506034008 57 296 3.5 9.6 0.00 0.29 0.07 77 1016.8
20260506033505 57 261 2.6 7.8 0.00 0.29 0.07 77 1016.7
20260506033007 57 262 3.5 8.7 0.00 0.29 0.07 76 1016.7
20260506032505 57 265 2.6 9.6 0.00 0.29 0.07 76 1016.5
20260506032006 57 273 3.5 9.6 0.00 0.29 0.07 76 1016.3
20260506031505 57 283 3.5 9.6 0.00 0.29 0.07 76 1016.3
20260506031005 58 272 4.3 9.6 0.00 0.29 0.07 75 1016.3
20260506030505 58 247 3.5 8.7 0.00 0.29 0.07 75 1016.2
20260506030006 58 313 5.2 9.6 0.00 0.33 0.07 75 1016.1
20260506025504 58 265 5.2 10.4 0.00 0.33 0.07 75 1016.2
20260506025005 58 298 5.2 12.2 0.00 0.33 0.07 75 1016.1
20260506024505 58 291 5.2 12.2 0.00 0.33 0.07 75 1016.0
20260506024005 58 302 5.2 10.4 0.00 0.33 0.07 75 1016.0
20260506023505 58 232 5.2 9.6 0.00 0.33 0.07 75 1015.9
20260506023006 59 239 5.2 11.3 0.00 0.33 0.07 75 1016.1
20260506022505 59 305 5.2 11.3 0.00 0.33 0.07 75 1016.0
20260506022006 59 288 4.3 11.3 0.00 0.33 0.07 74 1015.9
20260506021505 59 263 4.3 11.3 0.00 0.33 0.07 74 1015.8
20260506021005 59 265 5.2 11.3 0.00 0.33 0.07 74 1015.7
20260506020505 59 282 5.2 12.2 0.00 0.33 0.07 74 1015.7
20260506020006 60 277 7.0 12.2 0.00 0.36 0.07 74 1015.7
20260506015505 60 252 7.0 10.4 0.00 0.36 0.07 74 1015.6
20260506015005 60 246 4.3 12.2 0.00 0.36 0.07 73 1015.7
20260506014505 60 296 6.1 13.0 0.00 0.36 0.07 73 1015.5
20260506014005 60 272 5.2 12.2 0.00 0.36 0.07 73 1015.4
20260506013504 61 291 7.8 12.2 0.00 0.36 0.07 73 1015.4
20260506013006 61 238 7.0 12.2 0.00 0.36 0.07 73 1015.3
20260506012505 61 205 4.3 12.2 0.00 0.36 0.07 73 1015.3
20260506012005 61 231 5.2 12.2 0.00 0.36 0.07 73 1015.3
20260506011505 61 248 5.2 12.2 0.00 0.36 0.07 73 1015.3
20260506011005 61 221 6.1 11.3 0.00 0.36 0.07 73 1015.3
20260506010505 61 223 5.2 10.4 0.00 0.36 0.07 72 1015.4
20260506010006 61 254 4.3 11.3 0.00 0.39 0.07 72 1015.3
20260506005504 61 232 4.3 10.4 0.00 0.39 0.07 73 1015.2
20260506005006 61 248 4.3 13.0 0.00 0.39 0.07 72 1015.3
20260506004505 62 233 6.1 13.0 0.00 0.39 0.07 72 1015.3
20260506004005 62 274 5.2 10.4 0.00 0.39 0.07 72 1015.3
20260506003504 62 254 5.2 10.4 0.00 0.39 0.07 72 1015.3
20260506002505 62 239 4.3 11.3 0.00 0.39 0.07 72 1015.1
20260506001005 62 196 5.2 10.4 0.00 0.39 0.07 71 1014.9
20260506000006 63 245 5.2 12.2 0.00 0.39 0.07 72 1015.0
20260505235506 63 227 5.2 12.2 0.00 0.39 0.07 71 1015.0
20260505235006 63 238 6.1 11.3 0.00 0.39 0.07 71 1014.9
20260505234505 63 298 6.1 10.4 0.00 0.39 0.07 70 1015.0
20260505234007 64 277 5.2 10.4 0.00 0.39 0.07 70 1014.9